Theta_e
348 347 348 343 341 335 332 331 335 335 334 332 332 333 334 335 334 334 333 332 331 325 324 323 323 323 321 318 321 318 314 316 314 313 312 312 314 313 312 312 312 311 313
345 345 341 338 336 334 331 332 332 331 331 333 333 333 332 332 332 332 331 327 321 319 318 317 319 321 323 323 323 321 320 319 318 315 315 313 312 312 312 312 313 313 314
339 339 339 339 336 331 330 330 332 333 334 333 333 332 331 331 329 328 317 316 317 316 315 318 321 321 320 319 322 321 320 320 320 318 318 317 313 312 312 312 314 315 316
338 337 336 332 329 329 330 331 332 333 331 329 326 323 319 317 315 314 315 314 314 314 315 316 317 316 316 317 318 319 321 322 322 320 319 319 318 316 313 313 313 313 314
335 335 333 329 330 329 330 332 331 326 318 316 315 314 313 312 312 312 313 313 313 314 314 314 314 314 314 316 316 319 323 322 321 319 319 321 320 320 320 318 317 316 316
332 331 332 330 330 332 330 324 320 317 315 313 313 314 314 314 315 315 316 317 317 317 316 315 313 313 313 315 316 317 320 321 322 322 322 322 321 321 320 321 320 319 318
332 332 331 330 327 324 321 317 315 315 319 320 320 320 320 321 321 322 322 321 321 320 320 319 316 315 314 314 316 318 320 321 322 322 322 320 321 321 322 321 320 321 320
331 329 327 322 317 317 318 319 321 321 322 323 322 322 322 321 321 322 322 323 323 322 321 320 318 316 315 314 315 319 320 321 319 318 319 320 320 319 319 319 320 320 320
327 327 324 321 324 323 323 323 323 323 323 322 321 320 321 321 322 322 323 323 321 320 320 319 318 315 312 314 316 319 319 319 318 317 317 318 320 320 320 320 319 320 320
328 326 324 323 325 325 325 325 325 324 322 322 322 321 320 321 319 320 320 322 320 320 320 319 318 317 314 313 314 317 318 318 318 319 320 320 320 320 320 319 318 319 320
326 326 326 324 325 326 326 326 326 325 324 324 323 321 320 320 319 321 322 322 323 323 322 321 321 320 319 319 318 317 318 320 320 321 320 319 318 319 319 320 321 320 321
326 328 327 327 326 326 325 323 323 323 322 322 321 322 322 322 322 322 322 323 323 323 322 322 321 321 321 320 320 320 319 318 319 320 320 321 320 320 322 321 321 321 321
321 323 325 325 324 324 323 321 321 323 323 322 321 321 320 321 321 322 322 322 322 319 320 319 321 319 320 319 319 319 319 320 320 321 322 320 320 321 321 321 321 321 319
322 322 322 323 324 324 325 324 324 324 324 323 322 321 321 321 320 320 321 320 320 320 320 320 319 320 320 320 320 320 319 319 321 322 321 320 321 319 321 321 321 320 318
324 325 326 325 324 324 325 325 323 321 322 321 321 321 321 321 322 323 323 323 323 322 322 322 322 322 322 322 323 323 323 320 322 322 321 320 319 317 316 315 315 315 315
326 326 328 328 327 327 326 321 322 321 322 323 322 323 323 323 323 323 322 321 321 322 323 323 323 323 323 323 322 323 322 321 320 320 320 319 317 317 316 316 316 315 314
327 326 327 327 327 328 328 322 318 320 320 321 324 324 324 322 322 322 323 324 324 325 326 325 325 323 323 322 322 321 319 318 318 319 319 317 317 316 316 315 313 313 312
328 328 327 327 327 324 321 318 321 323 323 323 322 322 322 322 323 324 325 326 325 325 324 324 324 323 323 321 319 317 314 315 318 318 317 317 316 315 315 313 312 309 305
328 329 327 325 326 324 323 324 324 324 325 324 324 324 323 323 324 325 325 324 324 324 324 323 323 322 319 313 312 311 309 312 317 317 315 314 314 315 312 310 305 304 304
329 328 328 326 326 324 324 325 325 324 324 324 325 324 325 325 325 325 324 324 324 322 321 321 320 317 314 313 312 309 309 314 316 316 314 313 311 307 302 301 301 301 301
329 328 325 326 325 324 326 325 325 323 323 323 325 325 325 325 325 325 324 322 320 318 317 317 317 315 312 309 309 309 309 309 310 313 314 312 308 303 303 302 303 302 300
328 325 327 327 325 325 325 325 323 323 324 326 325 325 326 325 325 324 322 319 316 315 316 316 310 308 307 307 307 309 309 309 310 310 311 310 305 303 303 304 304 304 303
325 327 327 326 325 325 324 323 324 325 326 326 325 326 325 324 324 323 319 317 315 314 313 310 309 308 308 307 307 308 309 308 308 310 310 309 308 304 305 306 304 304 305
327 326 324 324 325 324 324 325 325 325 326 325 324 324 324 324 323 320 317 316 313 312 310 309 309 308 308 307 307 307 306 305 307 310 309 306 304 305 305 304 303 303 301
325 324 323 323 324 325 326 325 324 325 326 325 324 325 324 323 321 318 316 313 312 310 309 308 306 306 306 306 306 306 305 304 306 307 305 305 304 304 303 303 301 300 299
326 323 323 324 325 325 325 324 325 325 326 326 325 325 324 323 320 317 314 310 310 309 309 308 308 307 303 303 303 303 302 302 305 305 304 303 303 302 301 299 298 299 300
Wind_Speed
22 29 25 15 15 14 11 10 9 8 7 6 5 3 3 5 5 6 7 7 7 6 6 5 5 4 2 2 3 3 5 6 6 7 9 13 14 12 12 13 12 15 14
29 18 12 13 11 9 10 11 9 8 6 3 3 4 5 5 6 5 5 6 6 7 5 4 4 4 1 1 1 1 2 5 6 8 9 12 11 9 9 10 11 11 12
12 11 10 10 8 9 10 10 8 5 3 3 3 4 4 4 4 6 7 6 7 6 5 5 4 4 4 4 4 3 3 5 8 9 11 12 13 11 11 12 13 10 10
5 4 5 7 9 10 10 7 3 3 2 3 4 5 6 7 7 6 6 5 5 4 4 5 6 6 5 5 6 5 5 7 10 12 12 13 13 14 16 18 18 18 16
5 4 6 9 10 9 7 5 5 6 6 6 6 5 5 4 3 3 3 3 4 5 6 8 9 9 8 7 8 8 9 9 9 11 13 16 16 17 18 21 22 23 23
6 7 9 10 8 7 8 7 7 7 6 5 4 3 2 2 1 1 2 3 4 5 6 7 9 10 10 10 10 12 12 12 13 16 17 19 17 18 18 21 23 24 28
7 7 7 10 10 9 9 9 8 7 5 4 4 3 3 2 0 1 3 6 7 8 9 9 9 9 11 12 11 11 11 12 15 19 20 20 23 20 22 23 26 27 29
10 9 9 9 10 10 10 9 8 6 5 2 2 1 3 3 5 6 7 11 13 12 12 13 13 11 11 13 13 14 13 12 10 15 18 19 22 23 25 25 27 30 31
10 7 6 9 11 9 9 8 6 4 2 3 4 6 9 8 8 9 11 13 16 16 15 14 14 14 12 13 15 16 17 19 19 19 20 22 22 23 24 27 30 33 34
8 6 5 5 6 5 5 4 4 6 8 9 11 13 13 13 12 12 12 11 13 13 13 13 13 12 10 10 15 17 22 22 22 23 24 26 27 29 29 32 33 33 32
7 5 4 3 4 3 5 8 8 9 10 12 14 11 10 9 7 7 9 13 15 17 15 13 10 10 11 13 16 20 23 25 28 30 31 32 32 32 32 32 30 30 30
6 7 8 7 7 8 9 9 10 11 13 14 11 9 8 7 8 10 11 12 13 16 17 16 14 14 16 18 21 22 24 26 28 31 33 34 31 33 31 29 29 28 29
6 7 8 7 8 8 8 9 10 12 14 11 12 13 12 11 12 12 12 12 14 20 20 19 18 19 21 22 23 25 26 27 27 29 29 27 27 25 26 25 21 23 25
9 7 7 7 6 6 8 10 12 14 15 16 15 14 13 12 11 8 9 12 15 18 20 21 23 25 26 28 30 32 33 31 28 28 28 25 20 22 24 27 28 25 31
12 9 8 7 5 8 11 13 13 15 14 14 15 16 16 14 11 14 17 19 21 22 24 26 28 29 28 26 28 30 29 26 27 28 25 21 21 21 22 21 24 26 28
13 13 12 12 12 13 14 20 18 15 14 13 13 14 17 18 17 18 21 22 22 24 29 32 30 28 28 26 28 25 22 25 25 23 20 22 24 24 22 23 24 24 25
15 15 13 13 15 18 19 20 17 14 16 15 16 17 16 19 20 19 23 26 27 28 28 25 24 28 27 28 22 22 22 23 23 23 25 24 22 19 20 21 20 19 21
19 16 16 13 13 12 11 9 12 15 17 18 11 13 16 19 22 24 22 21 19 20 22 25 26 26 21 17 17 21 24 26 24 23 21 18 20 18 18 20 22 23 22
21 18 14 17 13 13 14 15 16 19 22 22 21 21 19 21 21 18 18 21 22 20 21 21 17 11 11 14 17 21 25 25 21 18 22 18 15 15 17 20 18 20 20
26 19 20 17 15 15 16 17 18 17 17 18 20 16 17 18 19 21 23 19 16 16 16 13 14 14 15 20 22 22 22 19 18 20 17 12 12 15 14 15 17 20 22
20 19 17 19 17 17 18 17 17 20 20 19 19 18 19 21 21 24 18 15 15 16 14 15 15 18 20 19 18 15 15 16 17 15 12 13 12 13 12 13 17 20 23
18 19 17 18 18 19 19 21 22 22 23 23 22 23 25 25 23 19 15 14 16 15 15 15 16 16 16 16 17 18 18 17 16 14 16 16 14 14 14 16 19 23 26
16 18 19 21 22 22 21 18 21 24 22 23 26 27 27 23 17 16 16 16 15 15 14 16 17 19 18 18 17 18 18 18 17 18 19 19 21 21 23 26 27 28 26
19 21 22 22 21 20 21 22 24 24 21 26 29 28 21 18 18 17 16 19 17 15 15 16 18 19 20 20 20 19 20 19 16 16 17 18 20 23 23 25 23 25 24
18 20 20 20 20 20 21 24 24 24 24 25 21 21 21 18 19 19 19 20 17 15 12 16 18 18 19 18 19 21 21 17 15 15 18 21 21 22 26 26 26 27 23
17 18 19 21 24 26 27 27 26 27 29 26 22 22 22 21 22 20 18 16 16 17 15 16 16 22 18 16 18 18 17 14 14 18 19 20 22 22 23 24 23 20 19
Wind_Direction
236 233 242 218 207 206 213 208 190 170 178 185 186 197 197 182 203 221 230 242 239 222 219 203 182 171 193 155 84 39 57 44 45 20 8 338 325 307 305 312 318 324 334
214 210 195 196 192 198 191 180 176 171 169 183 220 226 214 220 221 223 228 209 179 175 176 189 192 184 209 248 238 296 10 16 9 17 8 6 2 341 341 343 336 332 341
185 188 194 206 190 176 177 169 167 187 216 222 202 223 229 217 201 173 162 169 177 190 195 202 224 245 260 270 259 292 303 335 342 341 347 356 10 7 356 355 351 345 347
180 196 195 165 160 175 180 180 195 210 187 170 164 152 137 132 140 158 177 196 205 224 230 246 261 266 278 272 273 278 298 317 319 322 329 338 350 358 352 347 349 345 343
161 164 167 169 174 171 170 193 173 146 134 130 134 138 132 140 164 203 213 239 251 257 264 269 271 270 276 289 290 274 287 299 304 310 318 322 330 337 337 335 332 333 335
131 150 159 158 156 163 156 148 142 136 138 141 149 151 155 136 134 166 243 262 278 288 288 278 272 270 265 269 276 281 284 294 305 306 308 310 315 320 320 317 316 321 322
136 144 157 147 147 149 144 141 146 144 141 140 128 127 123 131 127 297 291 290 287 286 290 287 275 270 263 265 268 265 273 293 298 298 299 299 305 309 307 306 308 307 307
138 144 138 144 150 146 142 145 142 133 140 141 198 244 269 257 294 283 281 283 288 290 287 287 280 273 262 265 265 261 269 281 298 309 305 303 301 305 305 304 302 299 302
143 147 147 164 160 148 143 141 155 159 207 256 280 274 284 285 293 288 288 292 295 296 296 290 285 280 267 262 266 267 273 274 289 295 293 293 299 301 304 304 305 304 303
146 144 154 173 176 173 181 201 228 251 256 268 279 290 282 290 287 279 283 294 297 303 302 302 301 298 287 271 272 274 277 288 297 296 293 293 294 295 295 296 301 298 297
148 150 174 188 211 224 244 248 258 263 274 275 285 284 280 287 280 275 284 285 289 293 293 282 275 271 274 279 284 280 283 290 293 293 294 295 295 293 289 287 286 286 287
183 215 224 238 242 248 263 257 245 258 272 282 281 277 269 270 264 265 265 270 279 289 288 288 285 279 278 276 276 279 286 290 292 295 294 291 295 299 291 290 287 285 286
207 214 222 232 242 250 251 242 245 266 275 279 276 274 262 243 257 264 270 275 273 284 284 286 282 284 282 283 285 285 285 286 287 292 304 300 302 304 305 301 296 290 285
208 206 213 222 218 242 259 265 273 279 282 286 287 285 285 285 280 271 281 286 289 293 296 292 289 288 290 294 295 291 287 285 288 300 304 304 299 305 305 303 300 291 291
217 223 240 249 261 258 271 277 279 283 282 283 282 284 285 286 286 299 299 300 300 298 295 289 290 291 291 291 298 306 298 288 293 298 299 301 304 302 303 299 292 291 293
240 243 253 265 272 268 278 274 262 269 278 286 286 292 293 293 300 302 303 304 300 298 295 294 298 307 301 300 305 303 297 298 298 295 291 302 300 303 300 301 299 300 300
241 245 251 264 282 278 279 283 259 264 267 272 278 282 282 291 300 302 302 297 293 296 296 299 295 304 301 302 297 296 302 305 300 286 289 293 294 292 296 300 304 307 309
247 247 248 259 281 287 288 275 273 283 291 300 287 282 285 296 298 299 300 303 308 308 303 299 299 299 294 296 306 313 312 308 304 298 293 291 293 288 291 302 301 305 308
245 234 249 258 274 270 274 278 284 293 302 305 305 289 288 291 296 298 301 306 306 303 298 297 297 301 309 313 316 316 311 301 295 292 297 294 291 282 297 296 300 306 308
246 240 242 252 266 262 273 289 301 308 312 318 313 290 295 293 293 299 300 293 293 298 301 299 304 306 301 305 304 307 312 303 293 299 298 283 289 292 293 303 308 308 306
239 241 246 242 262 266 282 292 301 305 306 303 308 298 289 292 285 291 278 282 295 304 300 298 298 300 306 308 303 310 324 329 321 302 280 287 296 287 297 310 316 317 312
237 237 242 251 256 266 277 291 290 288 294 298 303 301 290 289 288 272 276 294 302 296 285 288 306 312 317 316 312 302 302 309 313 295 288 271 268 272 284 303 315 319 317
232 240 249 257 265 274 281 280 281 285 288 287 294 285 282 281 263 281 288 293 292 285 291 306 314 319 312 305 300 296 295 298 297 285 285 281 279 280 291 297 308 310 303
242 251 258 265 269 273 278 284 290 288 283 289 289 285 273 258 266 283 289 294 287 287 295 310 312 308 300 299 297 292 296 297 284 281 278 274 279 292 299 307 305 305 304
246 252 256 264 273 279 283 282 282 274 274 283 288 274 259 263 272 276 292 292 284 289 305 333 333 314 298 299 299 298 302 294 285 283 280 282 290 295 306 303 303 302 303
256 259 261 267 272 274 280 284 281 271 275 281 288 268 259 268 269 268 282 290 283 283 282 299 327 331 310 320 318 306 303 292 275 274 281 286 290 291 295 299 301 301 301